Weather History for KDTL - January, 2013

Change the Weather History Date:

Monday, January 28, 2013

  Actual Average Record
Temperature  
Mean Temperature 29 °F -  
Max Temperature 32 °F 16 °F 42 °F (1989)
Min Temperature 26 °F -4 °F -42 °F (1952)
Degree Days  
Heating Degree Days 36    
Moisture  
Dew Point 30 °F    
Average Humidity 100    
Maximum Humidity 100    
Minimum Humidity 93    
Precipitation  
Precipitation 0.30 in - - ()
Sea Level Pressure  
Sea Level Pressure 29.76 in    
Wind  
Wind Speed 5 mph (South)    
Max Wind Speed 9 mph    
Max Gust Speed -    
Visibility 2 miles    
Events Fog , Snow    
Averages and records for this station are not official NWS values.
T = Trace of Precipitation, MM = Missing Value Source: NWS Daily Summary

Daily Weather History Graph

Daily Weather History Graph

Search for Another Location

Airport or City:

Trip Planner

Search our weather history database for the weather conditions in past years. The results will help you decide how hot, cold, wet, or windy it might be!

Date:

Astronomy

Jan. 28, 2013 Rise Set
Actual Time 7:52 AM CST 5:21 PM CST
Civil Twilight 7:19 AM CST 5:54 PM CST
Nautical Twilight 6:42 AM CST 6:30 PM CST
Astronomical Twilight 6:07 AM CST 7:06 PM CST
Moon 7:27 PM CST (1/28) 8:09 AM CST (1/28)
Length of Visible Light 10h 34m
Length of Day
9h 28m
Full, 98% of the Moon is Illuminated
Jan 28
Full
Feb 3
Last Quarter
Feb 10
New
Feb 17
First Quarter
Feb 25
Full

Hourly Weather History & Observations

Time (CST) Temp. Windchill Dew Point Humidity Pressure Visibility Wind Dir Wind Speed Gust Speed Precip Events Conditions
12:13 AM 28.4 °F 24.6 °F 26.6 °F 93% 29.78 in 7.0 mi SSE 3.5 mph - N/A   Overcast
12:32 AM 28.4 °F 22.2 °F 26.6 °F 93% 29.78 in 7.0 mi SE 5.8 mph - N/A   Overcast
12:53 AM 30.2 °F 24.3 °F 28.4 °F 93% 29.78 in 7.0 mi SE 5.8 mph - N/A   Overcast
1:13 AM 30.2 °F 24.3 °F 28.4 °F 93% 29.78 in 7.0 mi SSE 5.8 mph - N/A   Overcast
1:32 AM 28.4 °F 21.2 °F 28.4 °F 100% 29.77 in 7.0 mi SE 6.9 mph - N/A   Overcast
1:53 AM 28.4 °F 23.3 °F 28.4 °F 100% 29.78 in 7.0 mi SSE 4.6 mph - N/A   Overcast
2:12 AM 30.2 °F 24.3 °F 28.4 °F 93% 29.78 in 7.0 mi SE 5.8 mph - N/A   Overcast
2:32 AM 28.4 °F 22.2 °F 28.4 °F 100% 29.78 in 7.0 mi SE 5.8 mph - N/A   Overcast
2:53 AM 28.4 °F 23.3 °F 28.4 °F 100% 29.78 in 5.0 mi SE 4.6 mph - N/A   Overcast
3:12 AM 28.4 °F 22.2 °F 28.4 °F 100% 29.78 in 4.0 mi SE 5.8 mph - N/A   Overcast
3:32 AM 28.4 °F 23.3 °F 28.4 °F 100% 29.77 in 4.0 mi ESE 4.6 mph - N/A   Overcast
3:53 AM 28.4 °F 23.3 °F 28.4 °F 100% 29.77 in 3.0 mi SE 4.6 mph - N/A   Overcast
4:12 AM 28.4 °F 23.3 °F 28.4 °F 100% 29.78 in 2.5 mi SSE 4.6 mph - N/A   Overcast
4:32 AM 28.4 °F 23.3 °F 28.4 °F 100% 29.77 in 2.0 mi SE 4.6 mph - N/A   Overcast
4:53 AM 28.4 °F 23.3 °F 28.4 °F 100% 29.75 in 1.8 mi ESE 4.6 mph - N/A   Overcast
5:12 AM 28.4 °F 24.6 °F 28.4 °F 100% 29.77 in 2.0 mi South 3.5 mph - N/A   Overcast
5:32 AM 28.4 °F 23.3 °F 28.4 °F 100% 29.78 in 2.0 mi South 4.6 mph - N/A   Overcast
5:53 AM 28.4 °F 24.6 °F 28.4 °F 100% 29.78 in 1.8 mi South 3.5 mph - N/A   Overcast
6:12 AM 28.4 °F 23.3 °F 28.4 °F 100% 29.80 in 1.2 mi South 4.6 mph - N/A   Overcast
6:33 AM 28.4 °F 24.6 °F 28.4 °F 100% 29.78 in 0.8 mi SE 3.5 mph - N/A   Overcast
6:53 AM 30.2 °F 25.4 °F 30.2 °F 100% 29.79 in 1.0 mi SSE 4.6 mph - N/A   Overcast
7:12 AM 30.2 °F 25.4 °F 30.2 °F 100% 29.78 in 1.0 mi SE 4.6 mph - N/A   Overcast
7:33 AM 28.4 °F 22.2 °F 28.4 °F 100% 29.79 in 0.8 mi SSE 5.8 mph - N/A   Overcast
7:53 AM 30.2 °F 24.3 °F 30.2 °F 100% 29.78 in 0.8 mi SE 5.8 mph - N/A   Overcast
8:12 AM 30.2 °F 24.3 °F 30.2 °F 100% 29.77 in 0.2 mi SE 5.8 mph - N/A Fog Light Freezing Fog
8:33 AM 30.2 °F 22.6 °F 30.2 °F 100% 29.77 in 0.5 mi SSE 8.1 mph - N/A Fog Light Freezing Fog
8:53 AM 30.2 °F 22.6 °F 30.2 °F 100% 29.78 in 0.5 mi SSE 8.1 mph - N/A Fog Light Freezing Fog
9:12 AM 30.2 °F 23.4 °F 30.2 °F 100% 29.80 in 0.8 mi South 6.9 mph - N/A   Overcast
9:33 AM 30.2 °F 23.4 °F 30.2 °F 100% 29.79 in 0.5 mi South 6.9 mph - N/A Fog Light Freezing Fog
9:53 AM 30.2 °F 25.4 °F 30.2 °F 100% 29.79 in 0.2 mi South 4.6 mph - N/A Fog Light Freezing Fog
10:12 AM 30.2 °F 24.3 °F 30.2 °F 100% 29.79 in 0.2 mi South 5.8 mph - N/A Fog Light Freezing Fog
10:32 AM 32.0 °F 27.5 °F 32.0 °F 100% 29.78 in 0.2 mi South 4.6 mph - N/A Fog Light Freezing Fog
11:12 AM 32.0 °F 26.4 °F 32.0 °F 100% 29.80 in 0.5 mi SSW 5.8 mph - N/A Fog Fog
11:32 AM 32.0 °F 28.7 °F 32.0 °F 100% 29.79 in 0.5 mi South 3.5 mph - N/A Fog Fog
11:53 AM 32.0 °F 25.6 °F 32.0 °F 100% 29.78 in 1.5 mi SW 6.9 mph - N/A   Overcast
12:32 PM 32.0 °F 24.2 °F 32.0 °F 100% 29.79 in 2.5 mi SW 9.2 mph - N/A   Overcast
12:53 PM 32.0 °F 25.6 °F 32.0 °F 100% 29.78 in 2.0 mi SSW 6.9 mph - N/A   Overcast
1:12 PM 32.0 °F 26.4 °F 32.0 °F 100% 29.77 in 1.8 mi SSW 5.8 mph - N/A   Overcast
1:32 PM 32.0 °F 27.5 °F 32.0 °F 100% 29.77 in 2.0 mi SSW 4.6 mph - N/A   Overcast
1:53 PM 32.0 °F 28.7 °F 32.0 °F 100% 29.76 in 3.0 mi SW 3.5 mph - N/A   Overcast
2:12 PM 32.0 °F 28.7 °F 32.0 °F 100% 29.75 in 3.0 mi SSW 3.5 mph - N/A   Overcast
2:33 PM 32.0 °F 27.5 °F 32.0 °F 100% 29.75 in 2.0 mi SSW 4.6 mph - N/A   Overcast
2:53 PM 32.0 °F 26.4 °F 32.0 °F 100% 29.77 in 2.5 mi SW 5.8 mph - N/A   Overcast
3:13 PM 32.0 °F 27.5 °F 32.0 °F 100% 29.77 in 4.0 mi WSW 4.6 mph - N/A   Overcast
3:33 PM 32.0 °F 26.4 °F 32.0 °F 100% 29.77 in 3.0 mi SW 5.8 mph - N/A   Overcast
3:52 PM 32.0 °F 28.7 °F 32.0 °F 100% 29.77 in 1.5 mi WSW 3.5 mph - N/A Snow Light Snow
4:13 PM 32.0 °F 27.5 °F 32.0 °F 100% 29.77 in 2.5 mi WSW 4.6 mph - N/A Snow Light Snow
4:33 PM 32.0 °F - 32.0 °F 100% 29.76 in 1.0 mi Calm Calm - 0.01 in Snow Light Snow
4:52 PM 32.0 °F - 32.0 °F 100% 29.75 in 0.8 mi Calm Calm - 0.02 in Snow Light Snow
5:12 PM 32.0 °F 28.7 °F 32.0 °F 100% 29.76 in 0.8 mi SW 3.5 mph - 0.01 in Snow Light Snow
5:33 PM 32.0 °F 28.7 °F 32.0 °F 100% 29.77 in 1.5 mi WSW 3.5 mph - 0.03 in Snow Light Snow
5:53 PM 32.0 °F - 32.0 °F 100% 29.77 in 1.2 mi Calm Calm - 0.05 in Snow Light Snow
6:12 PM 30.2 °F 24.3 °F 30.2 °F 100% 29.76 in 1.2 mi NNW 5.8 mph - 0.01 in Snow Light Snow
6:33 PM 30.2 °F 26.7 °F 30.2 °F 100% 29.76 in 1.5 mi NNW 3.5 mph - 0.02 in Snow Light Snow
6:53 PM 28.4 °F 23.3 °F 28.4 °F 100% 29.75 in 1.2 mi North 4.6 mph - 0.03 in Snow Light Snow
7:12 PM 28.4 °F 24.6 °F 28.4 °F 100% 29.74 in 1.0 mi North 3.5 mph - 0.01 in Snow Snow
7:33 PM 28.4 °F - 28.4 °F 100% 29.75 in 1.2 mi Calm Calm - 0.02 in Snow Light Snow
7:53 PM 28.4 °F - 28.4 °F 100% 29.74 in 0.8 mi Calm Calm - 0.04 in Snow Snow
8:12 PM 28.4 °F - 28.4 °F 100% 29.75 in 1.0 mi Calm Calm - 0.02 in Snow Snow
8:33 PM 28.4 °F 24.6 °F 28.4 °F 100% 29.74 in 0.8 mi NNW 3.5 mph - 0.04 in Snow Snow
8:52 PM 28.4 °F 22.2 °F 28.4 °F 100% 29.73 in 0.8 mi NNW 5.8 mph - 0.06 in Snow Snow
9:12 PM 28.4 °F 22.2 °F 28.4 °F 100% 29.72 in 0.8 mi NNW 5.8 mph - 0.02 in Snow Snow
9:33 PM 28.4 °F 22.2 °F 28.4 °F 100% 29.73 in 1.0 mi NNW 5.8 mph - 0.03 in Snow Snow
9:53 PM 28.4 °F 21.2 °F 28.4 °F 100% 29.72 in 1.0 mi NNW 6.9 mph - 0.04 in Snow Snow
10:13 PM 28.4 °F 21.2 °F 28.4 °F 100% 29.71 in 0.8 mi NNW 6.9 mph - 0.01 in Snow Snow
10:32 PM 26.6 °F 20.0 °F 26.6 °F 100% 29.71 in 0.8 mi NNW 5.8 mph - 0.03 in Snow Snow
10:53 PM 26.6 °F 20.0 °F 26.6 °F 100% 29.69 in 1.2 mi North 5.8 mph - 0.04 in Snow Light Snow
11:13 PM 26.6 °F 22.6 °F 26.6 °F 100% 29.67 in 1.5 mi North 3.5 mph - 0.01 in Snow Light Snow
11:32 PM 26.6 °F - 26.6 °F 100% 29.67 in 1.5 mi Calm Calm - 0.02 in Snow Light Snow
11:58 PM 26.6 °F 22.6 °F 26.6 °F 100% 29.66 in 1.8 mi North 3.5 mph - N/A Snow Light Snow